FW0600 Weather Reports


time (UTC)temp
F
wind
direction
speed
knots
gust
knots
rain 1hr
in
rain 24hr
in
rain mn
in
humidity
%
barometer
mb
20260504081547 67 308 0.0 0.9 0.00 0.23 0.23 86 1014.8
20260504044541 67 298 0.0 2.6 0.04 0.20 0.20 89 1014.2
20260504043034 66 309 0.9 3.5 0.04 0.19 0.19 91 1014.2
20260504041532 66 299 0.0 5.2 0.05 0.18 0.18 93 1014.6
20260504040027 65 335 0.0 2.6 0.05 0.17 0.17 93 1014.6
20260504034526 64 320 0.0 0.9 0.06 0.16 0.16 93 1014.8
20260504033025 64 298 0.0 1.7 0.06 0.15 0.15 92 1014.9
20260504031522 64 313 0.0 2.6 0.06 0.13 0.13 92 1015.2
20260504030122 65 286 0.0 2.6 0.06 0.12 0.12 91 1015.7
20260504024521 65 319 0.0 1.7 0.06 0.10 0.10 90 1016.0
20260504023020 66 303 0.0 1.7 0.06 0.09 0.09 89 1016.3
20260504021518 67 291 0.0 1.7 0.06 0.07 0.07 88 1016.6
20260504020019 67 206 0.0 1.7 0.05 0.06 0.06 88 1017.0
20260504014518 67 298 0.0 2.6 0.03 0.05 0.05 86 1017.0
20260504013016 68 316 0.0 0.0 0.02 0.03 0.03 85 1017.3
20260504011519 68 322 0.0 0.0 0.00 0.02 0.02 85 1017.4
20260504010015 68 234 0.0 0.0 0.01 0.02 0.02 85 1017.4
20260504004520 67 171 0.0 0.0 0.02 0.02 0.02 85 1017.5
20260504003110 67 290 0.0 0.0 0.02 0.02 0.02 86 1017.3
20260504001510 66 290 0.0 0.0 0.02 0.02 0.02 86 1017.2
20260504000007 66 290 0.0 0.0 0.01 0.01 0.01 85 1017.3
20260503234508 66 291 0.0 2.6 0.00 0.00 0.00 83 1017.6
20260503233005 67 17 0.0 2.6 0.00 0.00 0.00 83 1017.9
20260503231503 67 61 0.0 1.7 0.00 0.00 0.00 85 1017.7
20260503230002 67 117 0.0 3.5 0.00 0.00 0.00 86 1017.4
20260503224600 66 63 0.0 0.9 0.00 0.00 0.00 88 1017.2
20260503223057 66 323 0.0 1.7 0.00 0.00 0.00 89 1016.9
20260503221554 65 130 0.0 0.0 0.00 0.00 0.00 91 1016.7
20260503220053 64 130 0.0 0.9 0.00 0.00 0.00 92 1016.6
20260503214550 64 117 0.0 1.7 0.00 0.00 0.00 93 1016.8
20260503213055 63 165 0.0 0.9 0.00 0.00 0.00 94 1016.4
20260503211545 63 148 0.0 0.0 0.00 0.00 0.00 94 1016.4
20260503210046 62 148 0.0 0.0 0.00 0.00 0.00 94 1016.2
20260503204542 62 148 0.0 0.0 0.00 0.00 0.00 94 1016.1
20260503203039 62 148 0.0 0.9 0.00 0.00 0.00 94 1016.0
20260503201540 62 145 0.0 0.9 0.00 0.00 0.00 94 1015.9
20260503200044 62 119 0.0 0.9 0.00 0.00 0.00 95 1015.7
20260503194541 62 107 0.0 0.0 0.00 0.00 0.00 94 1015.5
20260503193041 62 107 0.0 0.0 0.00 0.00 0.00 94 1015.5
20260503191536 61 107 0.0 0.0 0.00 0.00 0.00 94 1015.5
20260503190035 61 107 0.0 0.0 0.00 0.00 0.00 94 1015.5
20260503184535 61 107 0.0 0.0 0.00 0.00 0.00 94 1015.6
20260503183050 61 107 0.0 0.0 0.00 0.00 0.00 94 1015.6
20260503181533 61 107 0.0 0.0 0.00 0.00 0.00 94 1015.5
20260503180033 60 107 0.0 0.0 0.00 0.00 0.00 94 1015.5
20260503174531 60 107 0.0 0.0 0.00 0.00 0.00 93 1015.6
20260503173029 60 107 0.0 0.0 0.00 0.00 0.00 92 1015.7
20260503171527 60 107 0.0 0.0 0.00 0.00 0.00 92 1015.8